Location: Banff
(51.1667°N, 115.5667°W)
Time: 23:49:57
(UTC+00:00)

N. Korean satellite - Visible Passes

Search period start: 26 November 2022 00:00
Search period end: 06 December 2022 00:00
Orbit: 422 x 454 km, 97.3° (Epoch: 26 November)

Date Brightness Start Highest point End Pass type
(mag) Time Alt. Az. Time Alt. Az. Time Alt. Az.
26 Nov 8.2 00:33:27 10° SSW 00:36:35 36° W 00:39:45 10° NNW visible
26 Nov 6.3 13:20:30 10° N 13:23:57 75° WNW 13:27:22 10° SSW visible
27 Nov 8.0 12:42:03 10° NNE 12:45:17 36° E 12:48:28 10° SSE visible
27 Nov 7.8 14:15:04 10° NNW 14:17:36 19° WNW 14:20:07 10° WSW visible
28 Nov 9.0 00:49:09 10° SSW 00:51:57 24° W 00:54:48 10° NW visible
28 Nov 9.6 12:04:26 10° NE 12:06:22 14° E 12:08:18 10° SE visible
28 Nov 6.6 13:35:50 10° N 13:39:10 49° WNW 13:42:29 10° SSW visible
29 Nov 7.1 12:57:07 10° NNE 13:00:31 56° E 13:03:52 10° S visible
29 Nov 8.2 14:30:45 10° NNW 14:32:38 14° WNW 14:34:30 10° W visible
30 Nov 9.6 01:04:55 10° SW 01:07:12 17° W 01:09:32 10° NW visible
30 Nov 9.1 12:18:58 10° NE 12:21:37 20° E 12:24:13 10° SE visible
30 Nov 7.1 13:51:06 10° N 13:54:13 33° WNW 13:57:19 10° SW visible
01 Dec 7.7 00:25:00 10° S 00:28:14 46° W 00:31:33 10° NNW visible
01 Dec 6.4 13:12:07 10° NNE 13:15:34 86° ESE 13:18:58 10° SSW visible
01 Dec 8.5 14:47:01 10° NW 14:47:30 10° WNW 14:47:57 10° WNW visible
02 Dec 9.9 01:20:58 10° WSW 01:22:21 12° W 01:23:44 10° WNW visible
02 Dec 8.4 12:33:38 10° NNE 12:36:40 29° E 12:39:40 10° SSE visible
02 Dec 7.5 14:06:18 10° NNW 14:09:05 23° WNW 14:11:50 10° WSW visible
03 Dec 8.6 00:40:12 10° SSW 00:43:14 31° W 00:46:19 10° NNW visible
03 Dec 9.9 11:56:23 10° ENE 11:57:32 11° E 11:58:39 10° ESE visible
03 Dec 6.3 13:27:02 10° N 13:30:26 63° WNW 13:33:47 10° SSW visible
04 Dec 7.6 12:48:16 10° NNE 12:51:33 42° E 12:54:47 10° S visible
04 Dec 7.9 14:21:29 10° NNW 14:23:47 17° WNW 14:26:03 10° WSW visible
05 Dec 9.3 00:55:26 10° SW 00:58:06 21° W 01:00:48 10° NW visible
05 Dec 9.4 12:10:12 10° NE 12:12:24 16° E 12:14:36 10° SE visible
05 Dec 6.7 13:41:53 10° N 13:45:08 41° WNW 13:48:20 10° SW visible
